TimeEST,TemperatureF,Dew PointF,Humidity,Sea Level PressureIn,VisibilityMPH,Wind Direction,Wind SpeedMPH,Gust SpeedMPH,PrecipitationIn,Events,Conditions,WindDirDegrees,DateUTC
12:55 AM,28.2,25.5,90,30.45,10.0,NE,4.6,-,N/A,,Clear,50,2012-11-14 05:55:00
1:55 AM,28.4,26.8,94,30.47,10.0,Calm,Calm,-,N/A,,Clear,0,2012-11-14 06:55:00
2:55 AM,27.9,26.8,96,30.47,10.0,Calm,Calm,-,N/A,,Clear,0,2012-11-14 07:55:00
3:55 AM,25.9,24.8,96,30.48,10.0,NE,3.5,-,N/A,,Clear,50,2012-11-14 08:55:00
4:55 AM,29.1,25.5,86,30.50,10.0,NE,3.5,-,N/A,,Clear,40,2012-11-14 09:55:00
5:55 AM,31.1,24.4,76,30.52,10.0,NNE,5.8,-,N/A,,Clear,30,2012-11-14 10:55:00
6:55 AM,31.8,25.5,78,30.53,10.0,NNE,5.8,-,N/A,,Overcast,20,2012-11-14 11:55:00
7:55 AM,33.8,26.6,75,30.55,10.0,NNE,6.9,-,N/A,,Overcast,20,2012-11-14 12:55:00
8:55 AM,37.8,26.8,65,30.55,10.0,NE,10.4,-,N/A,,Partly Cloudy,40,2012-11-14 13:55:00
9:55 AM,40.3,26.6,58,30.56,10.0,North,9.2,-,N/A,,Clear,360,2012-11-14 14:55:00
10:55 AM,42.6,27.1,54,30.54,10.0,North,8.1,-,N/A,,Clear,360,2012-11-14 15:55:00
11:55 AM,44.2,26.1,49,30.52,10.0,NNE,9.2,-,N/A,,Clear,30,2012-11-14 16:55:00
12:55 PM,45.7,26.4,47,30.49,10.0,NNE,9.2,-,N/A,,Clear,20,2012-11-14 17:55:00
1:55 PM,45.9,24.8,44,30.48,10.0,NNE,8.1,-,N/A,,Clear,20,2012-11-14 18:55:00
2:55 PM,46.0,24.1,42,30.48,10.0,North,10.4,-,N/A,,Clear,350,2012-11-14 19:55:00
3:55 PM,44.2,22.3,42,30.48,10.0,North,10.4,-,N/A,,Clear,350,2012-11-14 20:55:00
4:55 PM,40.5,21.2,46,30.49,10.0,North,8.1,-,N/A,,Clear,10,2012-11-14 21:55:00
5:55 PM,34.9,21.6,58,30.50,10.0,NE,6.9,-,N/A,,Clear,50,2012-11-14 22:55:00
6:55 PM,35.1,21.9,59,30.50,10.0,NNE,10.4,-,N/A,,Clear,30,2012-11-14 23:55:00
7:55 PM,34.3,21.9,60,30.51,10.0,NNE,5.8,-,N/A,,Clear,20,2012-11-15 00:55:00
8:55 PM,30.2,21.6,70,30.51,10.0,North,8.1,-,N/A,,Clear,10,2012-11-15 01:55:00
9:55 PM,31.3,21.6,67,30.51,10.0,North,4.6,-,N/A,,Clear,360,2012-11-15 02:55:00
10:55 PM,24.4,21.7,89,30.50,10.0,NNE,4.6,-,N/A,,Clear,30,2012-11-15 03:55:00
11:55 PM,25.2,21.2,85,30.48,10.0,NNE,5.8,-,N/A,,Clear,30,2012-11-15 04:55:00